Regional Weather Roundup
Issued by NWS Kansas City/Pleasant Hill, MO

Home | Current Version | Previous Version | Text Only | Print | Product List | Glossary On
Versions: 1 2 3 4 5 6 7 8 9 10 11 12 13 14 15 16 17 18 19 20 21 22 23 24 25 26 27 28 29 30 31 32 33 34 35 36 37 38 39 40 41 42 43 44 45 46 47 48 49 50
000
ASUS43 KEAX 030810
RWREAX

WEATHER ROUNDUP FOR EASTERN KANSAS AND NORTHWEST MISSOURI
NATIONAL WEATHER SERVICE KANSAS CITY/PLEASANT HILL MO
300 AM CDT TUE MAY 03 2016

KSZ040-057-103>105-MOZ028-029-037-043-030900-
...KANSAS CITY METROPOLITAN AREA...

CITY           SKY/WX    TMP DP  RH WIND       PRES   REMARKS
K.C. INTL      CLEAR     46  43  89 W5        30.06S
K.C. DOWNTOWN  CLEAR     45  43  93 CALM      30.06S
LEES SUMMIT    CLEAR     45  44  97 SW5       30.06S
OLATHE - IXD   CLEAR     44  42  93 CALM      30.07S
OLATHE - OJC   CLEAR     45  42  89 W5        30.06F
LAWRENCE       PTCLDY    39  38  96 CALM      30.07S FOG

$$

MOZ001>008-011>017-020>025-030>033-038>040-044>046-053-054-030900-
...NORTHERN AND CENTRAL MISSOURI...

CITY           SKY/WX    TMP DP  RH WIND       PRES   REMARKS
ST. JOSEPH     FOG       42  41  96 CALM      30.07S VSB 1/4
MOSBY          MOSUNNY   43  43 100 CALM      30.06S FOG
WARRENSBURG    FOG       43  41  93 CALM      30.05F VSB 1/4
WHITEMAN AFB   NOT AVBL
CLINTON        CLEAR     41  41 100 CALM      30.06F
SEDALIA        CLEAR     45  44  97 SW6       30.06F
WARSAW         NOT AVBL
CHILLICOTHE      N/A     42  41  96 CALM      30.06F
KIRKSVILLE     CLEAR     40  39  97 NW3       30.05S FOG

$$

MOZ041-047>049-056>058-063>065-088>090-097-030900-
...EASTERN AND SOUTHERN MISSOURI...

CITY           SKY/WX    TMP DP  RH WIND       PRES   REMARKS
ST. LOUIS INTL CLOUDY    53  49  86 NW5       30.01F
SPIRIT OF STL  CLOUDY    52  50  93 NW3       30.01F
COLUMBIA       FOG       43  42  97 CALM      30.04F VSB 1/4
JEFFERSON CITY FOG       46  46 100 CALM      30.05F VSB 1/4
ROLLA          CLOUDY    48  47  96 NW7       30.02S
OSAGE BEACH    CLOUDY    45  36  70 W3        30.05F VSB 1/4
SPRINGFIELD    CLOUDY    47  44  90 N3        30.05S
JOPLIN         FOG       43  42  97 CALM      30.07F VSB 3/4
WEST PLAINS    CLOUDY    51  45  79 VRB3      30.03F

$$

IAZ060-094-KSZ022-034>040-054-083-096-NEZ052-066-093-030900-
...KANSAS...SOUTHEAST NEBRASKA AND IOWA...

CITY           SKY/WX    TMP DP  RH WIND       PRES   REMARKS
TOPEKA         CLEAR     42  40  92 CALM      30.07S FOG
MANHATTAN      MOCLDY    44  40  85 CALM      30.06S
EMPORIA        PTCLDY    44  42  93 SE3       30.06F
CHANUTE        PTCLDY    43  41  93 CALM      30.07F FOG
WICHITA        PTCLDY    47  40  76 CALM      30.06S
OMAHA          CLEAR     45  41  86 SE5       30.04F
LINCOLN        CLOUDY    45  42  89 CALM      30.06F
FALLS CITY     PTCLDY    46  42  86 CALM      30.06S
LAMONI         CLEAR     45  42  89 W3        30.05S
DES MOINES     CLEAR     47  41  80 CALM      30.04F

$$




USA.gov is the U.S. government's official web portal to all federal, state and local government web resources and services.